[[{"header":{"parameterUnit":"m.s-1","parameterCategory":2,"la1":30.2992,"la2":30.254,"lo1":-89.0895,"lo2":-89.0443,"dy":0.0025,"dx":0.0025,"nx":19,"ny":19,"refTime":"2026-03-06T03:00:00:Z","depth":"0","parameterNumber":2,"parameterNumberName":"U-component_of_CURRENTS"},"data":[0,0,0,-0.1339,-0.1341,-0.1506,-0.1507,-0.1642,-0.1643,0,0,0,0,0,0,0,0,0,0,0,-0.1273,-0.1273,-0.1339,-0.1342,-0.1506,-0.1507,-0.1642,-0.1643,0,0,0,0,0,0,0,0,0,0,0,-0.1273,-0.1273,-0.1273,-0.1342,-0.1506,-0.1507,-0.1642,-0.1544,0,0,0,0,0,0,0,0,0,0,-0.1396,-0.1344,-0.1273,-0.1273,-0.1343,-0.1506,-0.1508,-0.154,-0.155,-0.1536,0,-0.1538,0,-0.1581,-0.1647,-0.1647,0,0,0,-0.1372,-0.1336,-0.1366,-0.1274,-0.1344,-0.1505,-0.1441,-0.1546,-0.1557,-0.1548,-0.154,-0.1546,-0.1584,-0.1648,-0.1648,-0.1705,-0.1705,0,0,-0.1363,-0.1323,-0.1359,-0.1372,-0.1354,-0.1435,-0.1445,-0.1554,-0.1556,-0.1541,-0.155,-0.1586,-0.1648,-0.1649,-0.1705,-0.1705,0,0,0,-0.1316,-0.1317,-0.1348,-0.1365,-0.1395,-0.1439,-0.1451,-0.1553,-0.1558,-0.1552,-0.1587,-0.1648,-0.1649,-0.1705,-0.1705,-0.1729,0,0,0,-0.1312,-0.1288,-0.1343,-0.1324,-0.1393,-0.1488,-0.1447,-0.1551,-0.1565,-0.1587,-0.1648,-0.165,-0.1705,-0.1705,-0.1728,-0.1746,0,0,0,-0.1271,-0.1285,-0.129,-0.1321,-0.1379,-0.1488,-0.1503,-0.1556,-0.1584,-0.1647,-0.165,-0.1705,-0.1705,-0.1727,-0.1744,-0.1699,0,0,0,-0.1246,-0.1288,-0.1289,-0.1361,-0.1377,-0.1494,-0.1503,-0.1597,-0.1653,-0.1649,-0.1705,-0.1705,-0.1727,-0.1743,-0.1699,-0.1566,-0.1556,0,0,-0.1297,-0.1292,-0.1344,-0.135,-0.1466,-0.1475,-0.1582,-0.1647,-0.1647,-0.1668,-0.1671,-0.1728,-0.1744,-0.1699,-0.1584,-0.1572,0,0,0,-0.1362,-0.1389,-0.1428,-0.1491,-0.1555,-0.1604,-0.1658,-0.1664,-0.17,-0.1675,-0.1727,-0.1737,-0.1707,-0.1627,-0.1619,-0.1538,-0.1706,-0.1706,-0.1706,-0.1375,-0.1437,-0.1525,-0.1593,-0.1646,-0.1697,-0.1728,-0.1734,-0.1731,-0.1734,-0.1755,-0.174,-0.1656,-0.1648,-0.1568,-0.175,-0.175,-0.175,-0.175,-0.1464,-0.1523,-0.1581,-0.1685,-0.1712,-0.1772,-0.1791,-0.1781,-0.1772,-0.1775,-0.1744,-0.1656,-0.1639,-0.1557,-0.1751,-0.1751,-0.1751,-0.1751,-0.1751,-0.1479,-0.1514,-0.1576,-0.1688,-0.1758,-0.18,-0.1811,-0.1822,-0.1792,-0.1784,-0.1645,-0.1643,-0.1567,-0.1747,-0.1747,-0.1747,-0.1747,-0.1747,-0.1747,-0.1455,-0.1525,-0.1572,-0.1691,-0.1731,-0.1787,-0.1814,-0.1782,-0.1701,-0.166,-0.1658,-0.1543,-0.1738,-0.1734,-0.1745,-0.1746,-0.1746,-0.1746,-0.1746,-0.1479,-0.1473,-0.1544,-0.1584,-0.168,-0.1668,-0.1726,-0.1612,-0.1575,-0.1496,-0.139,-0.157,-0.1539,-0.1544,-0.1535,-0.1494,-0.1494,-0.1494,-0.1494,-0.144,-0.1463,-0.149,-0.1526,-0.157,-0.1604,-0.1462,-0.1391,-0.128,-0.1202,-0.1245,-0.1215,-0.1229,-0.118,-0.1193,-0.1177,-0.1047,-0.1046,-0.1046,-0.1422,-0.1435,-0.1423,-0.147,-0.1512,-0.1482,-0.1308,-0.1154,-0.1022,-0.1026,-0.1163,-0.1181,-0.1142,-0.117,-0.1099,-0.1124,-0.11,0,0]},{"header":{"parameterUnit":"m.s-1","parameterCategory":2,"la1":30.2992,"la2":30.254,"lo1":-89.0895,"lo2":-89.0443,"dy":0.0025,"dx":0.0025,"nx":19,"ny":19,"refTime":"2026-03-06T03:00:00:Z","depth":"0","parameterNumber":3,"parameterNumberName":"V-component_of_CURRENTS"},"data":[0,0,0,-0.0183,-0.0182,-0.011,-0.0109,0.0077,0.0079,0,0,0,0,0,0,0,0,0,0,0,-0.0206,-0.0206,-0.0183,-0.0182,-0.011,-0.0109,0.0077,0.0079,0,0,0,0,0,0,0,0,0,0,0,-0.0206,-0.0206,-0.0206,-0.0182,-0.011,-0.0109,0.0077,0.0003,0,0,0,0,0,0,0,0,0,0,-0.0077,-0.0119,-0.0206,-0.0206,-0.0182,-0.011,-0.0109,-0.0001,0.0008,0.0065,0,0.0064,0,0.007,0.0092,0.0093,0,0,0,-0.0164,-0.0127,-0.011,-0.0206,-0.0181,-0.011,-0.0137,0.0003,0.0013,0.0078,0.0067,0.0073,0.0073,0.0093,0.0094,0.0274,0.0275,0,0,-0.0168,-0.0183,-0.0118,-0.0104,-0.0175,-0.014,-0.0135,0.0008,0.0018,0.0068,0.0077,0.0076,0.0095,0.0096,0.0274,0.0275,0,0,0,-0.0192,-0.0186,-0.0173,-0.0111,-0.0109,-0.0138,-0.0133,0.0011,0.0014,0.0079,0.0078,0.0096,0.0098,0.0273,0.0274,0.0238,0,0,0,-0.0193,-0.0201,-0.0176,-0.0182,-0.0113,-0.0061,-0.0133,0.0004,0.002,0.0077,0.0096,0.01,0.0273,0.0274,0.0237,0.022,0,0,0,-0.0207,-0.0202,-0.0199,-0.0183,-0.0161,-0.0064,-0.0053,0.0007,0.002,0.0093,0.01,0.0272,0.0274,0.0237,0.022,0.0268,0,0,0,-0.0216,-0.0226,-0.02,-0.02,-0.0162,-0.0098,-0.0054,0.0006,0.0064,0.0097,0.0273,0.0274,0.0237,0.022,0.0267,0.0254,0.0256,0,0,-0.0237,-0.0229,-0.0228,-0.0203,-0.016,-0.0106,-0.0033,0.0053,0.0108,0.0234,0.0238,0.0237,0.022,0.0268,0.0326,0.0326,0,0,0,-0.0239,-0.0236,-0.0218,-0.0187,-0.0131,-0.0062,0.0025,0.0079,0.018,0.0145,0.0274,0.0265,0.0295,0.0287,0.0288,0.0332,0.028,0.028,0.028,-0.0268,-0.024,-0.0222,-0.0172,-0.0119,-0.0013,0.0052,0.015,0.02,0.024,0.0261,0.0308,0.0299,0.0299,0.0345,0.0294,0.0293,0.0293,0.0293,-0.0295,-0.0288,-0.0226,-0.0207,-0.0118,-0.0044,0.0102,0.0147,0.027,0.0279,0.0312,0.0281,0.0297,0.0346,0.0292,0.0292,0.0292,0.0292,0.0292,-0.0321,-0.0316,-0.0302,-0.0259,-0.0177,-0.007,0.0031,0.0134,0.0238,0.0272,0.031,0.031,0.0333,0.0301,0.0301,0.0301,0.0301,0.0301,0.0301,-0.0365,-0.0345,-0.0358,-0.0304,-0.0272,-0.0179,-0.0005,0.0086,0.0218,0.0284,0.0284,0.0363,0.0311,0.0287,0.0303,0.0303,0.0303,0.0302,0.0302,-0.0405,-0.041,-0.0433,-0.0425,-0.034,-0.0263,-0.0098,0.0093,0.0205,0.0264,0.0369,0.0312,0.0332,0.0332,0.0311,0.0333,0.0333,0.0333,0.0333,-0.0442,-0.0442,-0.0484,-0.0478,-0.0419,-0.0295,-0.0158,0.0033,0.0261,0.0357,0.0408,0.0393,0.0389,0.0413,0.0411,0.0392,0.0434,0.0435,0.0435,-0.047,-0.0485,-0.0516,-0.0511,-0.0449,-0.0329,-0.0212,-0.0029,0.0283,0.0445,0.0475,0.0471,0.0454,0.0445,0.0485,0.0479,0.0448,0,0]}],[{"header":{"parameterUnit":"m.s-1","parameterCategory":2,"la1":30.2992,"la2":30.254,"lo1":-89.0895,"lo2":-89.0443,"dy":0.0025,"dx":0.0025,"nx":19,"ny":19,"refTime":"2026-03-06T03:00:00:Z","depth":"2","parameterNumber":2,"parameterNumberName":"U-component_of_CURRENTS"},"data":[0,0,0,-0.1059,-0.1061,-0.1168,-0.1169,-0.1261,-0.1262,0,0,0,0,0,0,0,0,0,0,0,-0.1014,-0.1015,-0.1059,-0.1061,-0.1168,-0.1169,-0.1261,-0.1262,0,0,0,0,0,0,0,0,0,0,0,-0.1014,-0.1015,-0.1015,-0.1061,-0.1168,-0.1169,-0.1261,-0.1195,0,0,0,0,0,0,0,0,0,0,-0.1099,-0.1065,-0.1015,-0.1015,-0.1062,-0.1168,-0.1169,-0.1193,-0.1199,-0.1194,0,-0.1196,0,-0.1225,-0.1265,-0.1265,0,0,0,-0.1078,-0.106,-0.1078,-0.1015,-0.1063,-0.1167,-0.1125,-0.1197,-0.1204,-0.1203,-0.1197,-0.1201,-0.1227,-0.1265,-0.1266,-0.1324,-0.1324,0,0,-0.1072,-0.1048,-0.1073,-0.1082,-0.1069,-0.1121,-0.1128,-0.1202,-0.1205,-0.1198,-0.1204,-0.1228,-0.1266,-0.1266,-0.1324,-0.1324,0,0,0,-0.1044,-0.1044,-0.1063,-0.1078,-0.1098,-0.1124,-0.1131,-0.1202,-0.1205,-0.1205,-0.1229,-0.1266,-0.1267,-0.1324,-0.1324,-0.1348,0,0,0,-0.1041,-0.1026,-0.106,-0.1049,-0.1096,-0.116,-0.113,-0.12,-0.121,-0.1229,-0.1266,-0.1267,-0.1323,-0.1324,-0.1347,-0.1345,0,0,0,-0.1013,-0.1024,-0.1028,-0.1047,-0.1086,-0.1159,-0.1168,-0.1204,-0.1223,-0.1265,-0.1267,-0.1323,-0.1324,-0.1346,-0.1343,-0.133,0,0,0,-0.0999,-0.1021,-0.1027,-0.1065,-0.1084,-0.1159,-0.1169,-0.1238,-0.1277,-0.1266,-0.1323,-0.1324,-0.1345,-0.1342,-0.133,-0.1177,-0.1166,0,0,-0.1024,-0.1023,-0.1049,-0.1057,-0.1123,-0.1146,-0.1215,-0.1269,-0.128,-0.1298,-0.13,-0.1347,-0.1343,-0.133,-0.1209,-0.1198,0,0,0,-0.1057,-0.1069,-0.1092,-0.1128,-0.1175,-0.1225,-0.1268,-0.1284,-0.1328,-0.1302,-0.1352,-0.1348,-0.1339,-0.1246,-0.1238,-0.1327,-0.1327,-0.1326,-0.1326,-0.1058,-0.1091,-0.1142,-0.1184,-0.1228,-0.1281,-0.1319,-0.1343,-0.1345,-0.1367,-0.1372,-0.1383,-0.1286,-0.1277,-0.1383,-0.1384,-0.1384,-0.1384,-0.1384,-0.1096,-0.1124,-0.1174,-0.123,-0.1272,-0.1319,-0.1371,-0.1378,-0.1391,-0.1395,-0.1386,-0.1282,-0.1269,-0.1386,-0.1385,-0.1385,-0.1385,-0.1385,-0.1385,-0.1082,-0.1104,-0.1138,-0.1214,-0.1286,-0.1343,-0.1371,-0.1406,-0.141,-0.1414,-0.1287,-0.1284,-0.138,-0.1403,-0.1403,-0.1402,-0.1402,-0.1402,-0.1402,-0.1046,-0.109,-0.1114,-0.1207,-0.1242,-0.131,-0.1363,-0.1349,-0.1307,-0.1288,-0.1286,-0.1389,-0.1388,-0.138,-0.1402,-0.1402,-0.1402,-0.1402,-0.1402,-0.1025,-0.1026,-0.1053,-0.108,-0.1173,-0.1157,-0.1247,-0.1164,-0.1158,-0.11,-0.1207,-0.1212,-0.1181,-0.1186,-0.1172,-0.1138,-0.1138,-0.1138,-0.1138,-0.098,-0.0998,-0.0986,-0.1004,-0.1042,-0.1081,-0.0936,-0.0891,-0.0915,-0.0919,-0.0929,-0.0894,-0.0908,-0.0861,-0.0873,-0.0853,-0.0737,-0.0736,-0.0736,-0.0954,-0.0947,-0.0914,-0.0938,-0.097,-0.0935,-0.0757,-0.0636,-0.0628,-0.0725,-0.0909,-0.1102,-0.1075,-0.1088,-0.1037,-0.1049,-0.1024,0,0]},{"header":{"parameterUnit":"m.s-1","parameterCategory":2,"la1":30.2992,"la2":30.254,"lo1":-89.0895,"lo2":-89.0443,"dy":0.0025,"dx":0.0025,"nx":19,"ny":19,"refTime":"2026-03-06T03:00:00:Z","depth":"2","parameterNumber":3,"parameterNumberName":"V-component_of_CURRENTS"},"data":[0,0,0,-0.0261,-0.026,-0.0219,-0.0219,-0.0104,-0.0103,0,0,0,0,0,0,0,0,0,0,0,-0.0273,-0.0273,-0.0261,-0.026,-0.0219,-0.0219,-0.0104,-0.0103,0,0,0,0,0,0,0,0,0,0,0,-0.0273,-0.0273,-0.0273,-0.026,-0.0219,-0.0219,-0.0104,-0.0148,0,0,0,0,0,0,0,0,0,0,-0.0195,-0.0221,-0.0273,-0.0273,-0.026,-0.0219,-0.0219,-0.0151,-0.0145,-0.0109,0,-0.011,0,-0.0108,-0.0095,-0.0094,0,0,0,-0.0249,-0.0226,-0.0215,-0.0273,-0.026,-0.0219,-0.0234,-0.0148,-0.0142,-0.0101,-0.0108,-0.0104,-0.0106,-0.0094,-0.0094,0.0008,0.0009,0,0,-0.0251,-0.0261,-0.022,-0.0212,-0.0257,-0.0236,-0.0233,-0.0145,-0.014,-0.0108,-0.0102,-0.0104,-0.0093,-0.0092,0.0008,0.0008,0,0,0,-0.0265,-0.0262,-0.0254,-0.0216,-0.0215,-0.0235,-0.0232,-0.0144,-0.0142,-0.0101,-0.0102,-0.0093,-0.0091,0.0008,0.0008,-0.0041,0,0,0,-0.0266,-0.0271,-0.0256,-0.026,-0.0218,-0.0188,-0.0233,-0.0148,-0.0138,-0.0103,-0.0093,-0.009,0.0008,0.0008,-0.004,-0.0071,0,0,0,-0.0274,-0.0272,-0.027,-0.0261,-0.0249,-0.019,-0.0183,-0.0146,-0.0139,-0.0094,-0.009,0.0008,0.0008,-0.0039,-0.0069,-0.0032,0,0,0,-0.028,-0.0299,-0.0271,-0.0294,-0.0249,-0.0234,-0.0183,-0.0158,-0.0125,-0.0092,0.0008,0.0008,-0.0039,-0.0068,-0.0032,-0.0063,-0.0067,0,0,-0.0313,-0.0303,-0.0319,-0.0294,-0.0308,-0.0238,-0.0223,-0.0157,-0.0099,-0.0015,-0.0013,-0.004,-0.0069,-0.0032,-0.0033,-0.0039,0,0,0,-0.0336,-0.0347,-0.0347,-0.0347,-0.0319,-0.0271,-0.0206,-0.0158,-0.0077,-0.0079,-0.0016,-0.0032,-0.0007,-0.0025,-0.0028,0.0011,0.0011,0.0011,0.0011,-0.0376,-0.0377,-0.0399,-0.0386,-0.036,-0.0285,-0.0234,-0.0146,-0.0098,-0.0062,-0.0054,-0.0037,-0.0057,-0.006,-0.0026,-0.0027,-0.0027,-0.0027,-0.0027,-0.0435,-0.0455,-0.0431,-0.0455,-0.0394,-0.0358,-0.0238,-0.0189,-0.0093,-0.0067,-0.004,-0.0054,-0.0067,-0.003,-0.003,-0.0029,-0.0029,-0.0029,-0.0028,-0.0474,-0.0484,-0.0496,-0.051,-0.0471,-0.0395,-0.0331,-0.0239,-0.0135,-0.0111,-0.0078,-0.0077,-0.0064,-0.008,-0.008,-0.008,-0.008,-0.008,-0.008,-0.0512,-0.0523,-0.0558,-0.056,-0.0553,-0.0503,-0.0382,-0.0316,-0.02,-0.013,-0.0129,-0.0054,-0.0052,-0.0065,-0.0079,-0.0079,-0.008,-0.008,-0.008,-0.0572,-0.0575,-0.0633,-0.0648,-0.0633,-0.0604,-0.0494,-0.036,-0.0266,-0.021,-0.0117,-0.0117,-0.0095,-0.0091,-0.0104,-0.0127,-0.0127,-0.0127,-0.0127,-0.0604,-0.0612,-0.0684,-0.0713,-0.0712,-0.0645,-0.0574,-0.0436,-0.0274,-0.0195,-0.0192,-0.0207,-0.0203,-0.0187,-0.0181,-0.0195,-0.0242,-0.0243,-0.0243,-0.0638,-0.066,-0.0711,-0.0743,-0.0744,-0.0692,-0.0622,-0.0435,-0.0239,-0.0247,-0.021,-0.0135,-0.0149,-0.0146,-0.0114,-0.0108,-0.0126,0,0]}],[{"header":{"parameterUnit":"m.s-1","parameterCategory":2,"la1":30.2992,"la2":30.254,"lo1":-89.0895,"lo2":-89.0443,"dy":0.0025,"dx":0.0025,"nx":19,"ny":19,"refTime":"2026-03-06T03:00:00:Z","depth":"4","parameterNumber":2,"parameterNumberName":"U-component_of_CURRENTS"},"data":[0,0,0,-0.0721,-0.0722,-0.0755,-0.0755,-0.0753,-0.0752,0,0,0,0,0,0,0,0,0,0,0,-0.0705,-0.0705,-0.0721,-0.0722,-0.0755,-0.0755,-0.0753,-0.0752,0,0,0,0,0,0,0,0,0,0,0,-0.0704,-0.0705,-0.0705,-0.0722,-0.0755,-0.0755,-0.0753,-0.0738,0,0,0,0,0,0,0,0,0,0,-0.071,-0.071,-0.0705,-0.0705,-0.0722,-0.0755,-0.0755,-0.0737,-0.0738,-0.0726,0,-0.0733,0,-0.0746,-0.0752,-0.0752,0,0,0,-0.0717,-0.071,-0.0713,-0.0705,-0.0722,-0.0755,-0.0738,-0.0738,-0.074,-0.0728,-0.0733,-0.0734,-0.0746,-0.0752,-0.0752,-0.0757,-0.0757,0,0,-0.0715,-0.0714,-0.0713,-0.0714,-0.0732,-0.0737,-0.0739,-0.0739,-0.0743,-0.0733,-0.0734,-0.0746,-0.0752,-0.0751,-0.0757,-0.0757,0,0,0,-0.0713,-0.0713,-0.0718,-0.0714,-0.0725,-0.0738,-0.0741,-0.0743,-0.0744,-0.0734,-0.0746,-0.0751,-0.0751,-0.0757,-0.0757,-0.0756,0,0,0,-0.0712,-0.0712,-0.0717,-0.0717,-0.0726,-0.0743,-0.0745,-0.0743,-0.0744,-0.0746,-0.0751,-0.0751,-0.0757,-0.0757,-0.0756,-0.0775,0,0,0,-0.0703,-0.0711,-0.0715,-0.0717,-0.0734,-0.0744,-0.0744,-0.0744,-0.0751,-0.0752,-0.0751,-0.0757,-0.0757,-0.0755,-0.0774,-0.0743,0,0,0,-0.0701,-0.0704,-0.0715,-0.0716,-0.0733,-0.0733,-0.0744,-0.0752,-0.0753,-0.0751,-0.0757,-0.0757,-0.0755,-0.0774,-0.0743,-0.0613,0,0,0,-0.07,-0.0704,-0.0701,-0.0711,-0.0696,-0.0728,-0.073,-0.0743,-0.0754,-0.0752,-0.0753,-0.0756,-0.0774,-0.0743,-0.0634,0,0,0,0,-0.0697,-0.0689,-0.0686,-0.0683,-0.0691,-0.0704,-0.0726,-0.0742,-0.0762,-0.0758,-0.0763,-0.0775,-0.0755,-0.068,-0.0759,-0.0759,-0.0759,-0.0758,-0.0758,-0.068,-0.0674,-0.0658,-0.0652,-0.0659,-0.0691,-0.0705,-0.0733,-0.0749,-0.0768,-0.0779,-0.0765,-0.0687,-0.0773,-0.0773,-0.0773,-0.0773,-0.0773,-0.0773,-0.0639,-0.0614,-0.0625,-0.0608,-0.063,-0.0643,-0.0692,-0.072,-0.0759,-0.0787,-0.0765,-0.0691,-0.0773,-0.0773,-0.0773,-0.0773,-0.0773,-0.0773,-0.0773,-0.0592,-0.058,-0.0581,-0.0567,-0.0576,-0.0621,-0.0639,-0.0717,-0.0756,-0.0766,-0.0675,-0.0762,-0.0755,-0.0758,-0.0758,-0.0758,-0.0758,-0.0758,-0.0758,-0.0536,-0.0536,-0.0519,-0.0518,-0.0517,-0.054,-0.0629,-0.0645,-0.0716,-0.0675,-0.0781,-0.076,-0.076,-0.0754,-0.0757,-0.0757,-0.0757,-0.0757,-0.0757,-0.0442,-0.0471,-0.0435,-0.043,-0.0415,-0.0427,-0.0515,-0.0543,-0.0547,-0.0522,-0.0597,-0.0606,-0.0591,-0.0595,-0.0583,-0.0535,-0.0533,-0.0532,0,-0.0386,-0.0398,-0.0346,-0.0318,-0.0295,-0.0345,-0.0328,-0.0365,-0.0438,-0.0425,-0.0539,-0.0624,-0.0629,-0.0614,-0.0615,-0.0599,0,0,0,-0.0317,-0.0321,-0.0261,-0.0255,-0.0228,-0.0248,-0.0315,-0.0313,-0.0425,-0.0395,-0.0489,-0.05,-0.0625,-0.0755,-0.0752,-0.0752,-0.0742,0,0]},{"header":{"parameterUnit":"m.s-1","parameterCategory":2,"la1":30.2992,"la2":30.254,"lo1":-89.0895,"lo2":-89.0443,"dy":0.0025,"dx":0.0025,"nx":19,"ny":19,"refTime":"2026-03-06T03:00:00:Z","depth":"4","parameterNumber":3,"parameterNumberName":"V-component_of_CURRENTS"},"data":[0,0,0,-0.0208,-0.0208,-0.0208,-0.0208,-0.0203,-0.0203,0,0,0,0,0,0,0,0,0,0,0,-0.021,-0.021,-0.0208,-0.0208,-0.0208,-0.0208,-0.0203,-0.0203,0,0,0,0,0,0,0,0,0,0,0,-0.021,-0.021,-0.021,-0.0208,-0.0208,-0.0208,-0.0203,-0.0204,0,0,0,0,0,0,0,0,0,0,-0.0204,-0.021,-0.021,-0.021,-0.0208,-0.0208,-0.0208,-0.0204,-0.0204,-0.0202,0,-0.0205,0,-0.0204,-0.0203,-0.0203,0,0,0,-0.0206,-0.021,-0.0208,-0.021,-0.0208,-0.0208,-0.0207,-0.0204,-0.0204,-0.0202,-0.0205,-0.0205,-0.0204,-0.0203,-0.0203,-0.0247,-0.0247,0,0,-0.0206,-0.0211,-0.0208,-0.0208,-0.0212,-0.0207,-0.0207,-0.0204,-0.0207,-0.0205,-0.0205,-0.0204,-0.0203,-0.0202,-0.0246,-0.0247,0,0,0,-0.0207,-0.0211,-0.0209,-0.0208,-0.0208,-0.0207,-0.0207,-0.0207,-0.0206,-0.0205,-0.0204,-0.0203,-0.0202,-0.0246,-0.0246,-0.031,0,0,0,-0.0207,-0.0212,-0.0209,-0.0212,-0.0208,-0.0209,-0.0211,-0.0206,-0.0205,-0.0204,-0.0203,-0.0202,-0.0245,-0.0246,-0.0307,-0.0329,0,0,0,-0.0209,-0.0212,-0.0213,-0.0212,-0.0212,-0.0209,-0.0207,-0.0206,-0.0205,-0.0203,-0.0202,-0.0245,-0.0246,-0.0304,-0.0324,-0.0349,0,0,0,-0.0213,-0.0235,-0.0213,-0.0248,-0.0213,-0.0253,-0.0207,-0.023,-0.0236,-0.0202,-0.0245,-0.0246,-0.0304,-0.0322,-0.0346,-0.0273,0,0,0,-0.0246,-0.0239,-0.0264,-0.0245,-0.0302,-0.0253,-0.0304,-0.0283,-0.0251,-0.0244,-0.0245,-0.0308,-0.0324,-0.0348,-0.0346,0,0,0,0,-0.028,-0.0298,-0.0313,-0.0339,-0.0351,-0.036,-0.0338,-0.0326,-0.0319,-0.0259,-0.0315,-0.0323,-0.0336,-0.0287,-0.0252,-0.0252,-0.0252,-0.0252,-0.0252,-0.0319,-0.034,-0.0395,-0.0421,-0.0443,-0.0436,-0.0441,-0.0417,-0.038,-0.0387,-0.0381,-0.0449,-0.0401,-0.0389,-0.0389,-0.039,-0.039,-0.039,-0.039,-0.0386,-0.0423,-0.0454,-0.0514,-0.0524,-0.0552,-0.0538,-0.0508,-0.0498,-0.0454,-0.0463,-0.0365,-0.0397,-0.0396,-0.0395,-0.0394,-0.0393,-0.0393,-0.0393,-0.0416,-0.0439,-0.0481,-0.056,-0.0605,-0.061,-0.0625,-0.0598,-0.056,-0.0563,-0.0486,-0.0489,-0.0476,-0.0558,-0.0559,-0.0559,-0.0559,-0.0559,-0.0559,-0.0425,-0.047,-0.0527,-0.0603,-0.064,-0.0676,-0.0666,-0.0646,-0.0608,-0.0548,-0.057,-0.0506,-0.05,-0.0485,-0.0563,-0.0562,-0.0562,-0.0562,-0.0561,-0.046,-0.0473,-0.0551,-0.0599,-0.0677,-0.0692,-0.0706,-0.0637,-0.0612,-0.0567,-0.0538,-0.0538,-0.0503,-0.0498,-0.0481,-0.056,-0.056,-0.0559,0,-0.0464,-0.0483,-0.0563,-0.062,-0.0664,-0.0692,-0.0639,-0.0611,-0.0566,-0.0559,-0.0613,-0.0583,-0.0581,-0.0544,-0.0538,-0.052,0,0,0,-0.0479,-0.0501,-0.0544,-0.0605,-0.0647,-0.0619,-0.0619,-0.058,-0.059,-0.0523,-0.0543,-0.0547,-0.0547,-0.0573,-0.052,-0.0513,-0.0486,0,0]}]]